Location: Haulchin
(50.3172°N, 3.4360°E)
Time: 14:21:40
(UTC+00:00)

SL-4 R/B - Pass Details

Date: 23 May 2024
Orbit: 412 x 601 km, 51.6° (Epoch: 18 June)

Event Time Altitude Azimuth Distance (km) Brightness Sun altitude
Exits shadow 02:46:24 - 198° (SSW) 2,010 4.3 -8.3°
Reaches altitude 10° 02:46:47 10° 195° (SSW) 1,886 4.2 -8.3°
Maximum altitude 02:50:20 25° 140° (SE) 1,208 3.7 -7.9°
Drops below altitude 10° 02:53:59 10° 85° (E) 1,945 5.6 -7.5°
Sets 02:56:36 0° 73° (ENE) 2,859 6.9 -7.2°
